TimeCDT,TemperatureF,Dew PointF,Humidity,Sea Level PressureIn,VisibilityMPH,Wind Direction,Wind SpeedMPH,Gust SpeedMPH,PrecipitationIn,Events,Conditions,WindDirDegrees,DateUTC
12:54 AM,53.1,45.0,74,30.10,10.0,SE,4.6,-,N/A,,Overcast,140,2013-03-29 05:54:00
1:54 AM,48.9,44.1,83,30.11,10.0,NNE,5.8,-,N/A,,Clear,30,2013-03-29 06:54:00
2:54 AM,46.0,43.0,89,30.11,10.0,Calm,Calm,-,N/A,,Clear,0,2013-03-29 07:54:00
3:54 AM,46.9,44.1,90,30.10,10.0,Calm,Calm,-,N/A,,Scattered Clouds,0,2013-03-29 08:54:00
4:54 AM,46.9,44.1,90,30.10,10.0,NE,3.5,-,N/A,,Mostly Cloudy,40,2013-03-29 09:54:00
5:54 AM,45.0,43.0,93,30.11,9.0,NNE,4.6,-,N/A,,Clear,30,2013-03-29 10:54:00
6:54 AM,44.1,43.0,96,30.11,6.0,NE,5.8,-,N/A,,Clear,40,2013-03-29 11:54:00
7:54 AM,45.0,44.1,97,30.14,3.0,NE,3.5,-,N/A,,Clear,40,2013-03-29 12:54:00
8:54 AM,51.1,48.0,89,30.14,7.0,East,5.8,-,N/A,,Clear,90,2013-03-29 13:54:00
9:54 AM,57.9,50.0,75,30.14,10.0,East,5.8,-,N/A,,Clear,100,2013-03-29 14:54:00
10:54 AM,64.9,52.0,63,30.13,10.0,ENE,8.1,-,N/A,,Clear,70,2013-03-29 15:54:00
11:54 AM,66.9,53.1,61,30.12,10.0,East,10.4,-,N/A,,Clear,100,2013-03-29 16:54:00
12:54 PM,70.0,53.1,55,30.10,10.0,East,9.2,-,N/A,,Clear,80,2013-03-29 17:54:00
1:54 PM,71.1,53.1,53,30.09,10.0,East,12.7,19.6,N/A,,Mostly Cloudy,100,2013-03-29 18:54:00
2:54 PM,71.1,51.1,49,30.07,10.0,East,11.5,-,N/A,,Partly Cloudy,100,2013-03-29 19:54:00
3:54 PM,71.1,51.1,49,30.05,10.0,ESE,13.8,-,N/A,,Mostly Cloudy,110,2013-03-29 20:54:00
4:54 PM,70.0,51.1,51,30.05,10.0,SSE,13.8,-,N/A,,Scattered Clouds,150,2013-03-29 21:54:00
5:54 PM,70.0,51.1,51,30.04,10.0,SE,12.7,-,N/A,,Scattered Clouds,140,2013-03-29 22:54:00
6:54 PM,66.9,52.0,59,30.05,10.0,ESE,9.2,-,N/A,,Partly Cloudy,120,2013-03-29 23:54:00
7:54 PM,63.0,52.0,67,30.05,10.0,ESE,8.1,-,N/A,,Clear,120,2013-03-30 00:54:00
8:54 PM,60.1,51.1,72,30.05,10.0,ESE,9.2,-,N/A,,Clear,120,2013-03-30 01:54:00
9:54 PM,57.9,51.1,78,30.06,10.0,SE,8.1,-,N/A,,Clear,130,2013-03-30 02:54:00
10:54 PM,57.0,51.1,81,30.05,10.0,SE,8.1,-,N/A,,Clear,130,2013-03-30 03:54:00
11:54 PM,54.0,50.0,86,30.02,10.0,ESE,5.8,-,N/A,,Clear,120,2013-03-30 04:54:00